Date String (YYYY-MM-DD hh:mm:ss) UTC,Instrument flags,Ambient pressure (hPa),Sample flow (lpm),Bypass flow (lpm),Sample temperature (°C),Ambient temperature (°C),ASC tube jacket temperature (°C),LED temperature (°C),Box temperature (°C),Sample RH (%),Span deviation,Mass concentration (μg/m³),Mass concentration (μg/m³),Mass concentration (μg/m³)
DateTimeUTC,F1_M11,P_M11,Q1_M11,Q2_M11,T1_M11,T2_M11,T3_M11,T4_M11,T5_M11,U1_M11,ZSPAN_M11,X0_M11,X2_M11,X1_M11
2023-05-05 02:00:00,,0824.4,4.99,0.00,30.0,28.6,00.0,38.4,31.6,20.5,0000.0,0021.04,0006.30,0002.74
2023-05-05 02:01:00,,0824.4,4.99,0.00,30.0,28.6,00.0,38.4,31.6,20.5,0000.0,0021.01,0006.26,0002.76
2023-05-05 02:02:00,,0824.4,5.01,0.00,30.0,28.7,00.0,38.4,31.6,20.4,0000.0,0021.93,0006.30,0002.76
2023-05-05 02:03:00,,0824.4,5.00,0.00,30.0,28.7,00.0,38.4,31.7,20.4,0000.0,0022.00,0006.33,0002.75
2023-05-05 02:04:00,,0824.4,5.01,0.00,30.1,28.7,00.0,38.4,31.7,20.3,0000.0,0021.74,0006.24,0002.71
2023-05-05 02:05:00,,0824.4,4.98,0.00,30.1,28.7,00.0,38.4,31.7,20.4,0000.0,0021.98,0006.18,0002.69
2023-05-05 02:06:00,,0824.4,5.00,0.00,30.1,28.8,00.0,38.5,31.7,20.4,0000.0,0022.30,0006.15,0002.69
2023-05-05 02:07:00,,0824.4,5.01,0.00,30.1,28.8,00.0,38.5,31.7,20.4,0000.0,0021.73,0006.04,0002.67
2023-05-05 02:08:00,,0824.4,5.01,0.00,30.1,28.8,00.0,38.5,31.8,20.3,0000.0,0023.12,0006.07,0002.68
2023-05-05 02:09:00,,0824.4,4.98,0.00,30.2,28.8,00.0,38.5,31.8,20.2,0000.0,0022.63,0006.00,0002.68
2023-05-05 02:10:00,,0824.4,5.01,0.00,30.2,28.8,00.0,38.5,31.7,20.2,0000.0,0022.69,0005.93,0002.64
2023-05-05 02:11:00,,0824.5,5.01,0.00,30.2,28.7,00.0,38.5,31.7,20.2,0000.0,0023.37,0005.83,0002.59
2023-05-05 02:12:00,,0824.5,4.98,0.00,30.2,28.7,00.0,38.5,31.7,20.1,0000.0,0022.52,0005.82,0002.57
2023-05-05 02:13:00,,0824.5,5.00,0.00,30.2,28.7,00.0,38.5,31.7,20.2,0000.0,0021.82,0005.73,0002.55
2023-05-05 02:14:00,,0824.5,5.01,0.00,30.2,28.7,00.0,38.5,31.8,20.2,0000.0,0022.34,0005.66,0002.54
2023-05-05 02:15:00,,0824.5,5.00,0.00,30.2,28.8,00.0,38.5,31.8,20.2,0000.0,0022.85,0005.74,0002.58
2023-05-05 02:16:00,,0824.6,5.00,0.00,30.2,28.8,00.0,38.5,31.8,20.3,0000.0,0022.97,0005.85,0002.58
2023-05-05 02:17:00,,0824.6,5.00,0.00,30.2,28.8,00.0,38.6,31.8,20.3,0000.0,0022.57,0006.01,0002.59
2023-05-05 02:18:00,,0824.7,5.01,0.00,30.2,28.8,00.0,38.6,31.8,20.2,0000.0,0022.54,0006.17,0002.61
2023-05-05 02:19:00,,0824.7,5.01,0.00,30.2,28.8,00.0,38.6,31.8,20.1,0000.0,0022.53,0006.21,0002.62
2023-05-05 02:20:00,,0824.7,4.99,0.00,30.2,28.8,00.0,38.6,31.9,20.1,0000.0,0022.37,0006.25,0002.62
2023-05-05 02:21:00,,0824.7,4.99,0.00,30.2,28.8,00.0,38.6,31.8,20.1,0000.0,0023.77,0006.28,0002.62
2023-05-05 02:22:00,,0824.7,5.02,0.00,30.2,28.8,00.0,38.6,31.7,20.0,0000.0,0023.39,0006.27,0002.63
2023-05-05 02:23:00,,0824.7,5.00,0.00,30.3,28.9,00.0,38.6,31.7,20.0,0000.0,0024.47,0006.28,0002.63
2023-05-05 02:24:00,,0824.7,4.98,0.00,30.3,28.9,00.0,38.6,31.8,19.8,0000.0,0024.37,0006.34,0002.62
2023-05-05 02:25:00,,0824.7,5.00,0.00,30.2,28.8,00.0,38.6,31.8,19.6,0000.0,0023.60,0006.28,0002.58
2023-05-05 02:26:00,,0824.7,5.01,0.00,30.2,28.8,00.0,38.6,31.7,19.5,0000.0,0023.05,0006.06,0002.53
2023-05-05 02:27:00,,0824.8,5.00,0.00,30.2,28.7,00.0,38.6,31.7,19.5,0000.0,0022.80,0005.86,0002.51
2023-05-05 02:28:00,,0824.7,5.00,0.00,30.2,28.7,00.0,38.6,31.7,19.3,0000.0,0021.87,0005.56,0002.47
2023-05-05 02:29:00,,0824.7,5.01,0.00,30.2,28.6,00.0,38.6,31.7,19.3,0000.0,0020.64,0005.38,0002.39
2023-05-05 02:30:00,,0824.7,5.01,0.00,30.2,28.6,00.0,38.6,31.6,19.2,0000.0,0019.00,0005.20,0002.32
2023-05-05 02:31:00,,0824.7,4.99,0.00,30.1,28.6,00.0,38.6,31.6,19.4,0000.0,0018.31,0005.07,0002.27
2023-05-05 02:32:00,,0824.7,5.00,0.00,30.1,28.6,00.0,38.6,31.6,19.5,0000.0,0016.63,0004.93,0002.23
2023-05-05 02:33:00,,0824.7,5.01,0.00,30.1,28.5,00.0,38.6,31.6,19.5,0000.0,0015.72,0004.83,0002.19
2023-05-05 02:34:00,,0824.7,5.01,0.00,30.1,28.5,00.0,38.6,31.6,19.6,0000.0,0014.16,0004.66,0002.16
2023-05-05 02:35:00,,0824.8,4.98,0.00,30.1,28.5,00.0,38.6,31.6,19.6,0000.0,0013.86,0004.48,0002.14
2023-05-05 02:36:00,,0824.7,5.01,0.00,30.1,28.5,00.0,38.6,31.6,19.6,0000.0,0013.51,0004.46,0002.17
2023-05-05 02:37:00,,0824.8,5.01,0.00,30.1,28.5,00.0,38.6,31.6,19.7,0000.0,0013.04,0004.48,0002.17
2023-05-05 02:38:00,,0824.7,4.99,0.00,30.1,28.5,00.0,38.6,31.6,19.7,0000.0,0013.07,0004.55,0002.16
2023-05-05 02:39:00,,0824.7,5.00,0.00,30.1,28.5,00.0,38.6,31.6,19.8,0000.0,0013.86,0004.63,0002.17
2023-05-05 02:40:00,,0824.7,5.01,0.00,30.1,28.5,00.0,38.6,31.6,19.8,0000.0,0014.54,0004.66,0002.20
2023-05-05 02:41:00,,0824.7,5.00,0.00,30.1,28.6,00.0,38.6,31.7,19.7,0000.0,0015.11,0004.73,0002.22
2023-05-05 02:42:00,,0824.7,4.99,0.00,30.1,28.6,00.0,38.6,31.7,19.7,0000.0,0016.65,0004.85,0002.24
2023-05-05 02:43:00,,0824.8,5.01,0.00,30.1,28.6,00.0,38.6,31.7,19.7,0000.0,0018.44,0004.96,0002.26
2023-05-05 02:44:00,,0824.7,5.01,0.00,30.1,28.7,00.0,38.6,31.7,19.6,0000.0,0019.52,0004.99,0002.27
2023-05-05 02:45:00,,0824.7,4.99,0.00,30.1,28.7,00.0,38.6,31.7,19.6,0000.0,0020.70,0005.02,0002.28
2023-05-05 02:46:00,,0824.7,4.98,0.00,30.2,28.7,00.0,38.6,31.7,19.6,0000.0,0020.47,0005.14,0002.31
2023-05-05 02:47:00,,0824.8,5.01,0.00,30.2,28.8,00.0,38.6,31.7,19.6,0000.0,0020.47,0005.14,0002.31
2023-05-05 02:48:00,,0824.8,5.02,0.00,30.2,28.8,00.0,38.6,31.7,19.6,0000.0,0020.61,0005.21,0002.31
2023-05-05 02:49:00,,0824.8,5.00,0.00,30.2,28.8,00.0,38.6,31.7,19.6,0000.0,0020.50,0005.16,0002.33
2023-05-05 02:50:00,,0824.8,4.99,0.00,30.2,28.8,00.0,38.6,31.7,19.5,0000.0,0020.50,0005.22,0002.35
2023-05-05 02:51:00,,0824.8,5.00,0.00,30.2,28.8,00.0,38.6,31.8,19.5,0000.0,0020.01,0005.26,0002.36
2023-05-05 02:52:00,,0824.8,5.00,0.00,30.2,28.9,00.0,38.6,31.8,19.5,0000.0,0020.15,0005.31,0002.38
2023-05-05 02:53:00,,0824.9,5.00,0.00,30.3,28.9,00.0,38.6,31.8,19.6,0000.0,0018.95,0005.26,0002.38
2023-05-05 02:54:00,,0824.9,5.02,0.00,30.3,28.8,00.0,38.6,31.8,19.5,0000.0,0017.13,0005.21,0002.37
2023-05-05 02:55:00,,0824.9,5.00,0.00,30.3,28.8,00.0,38.6,31.8,19.3,0000.0,0016.11,0005.26,0002.36
2023-05-05 02:56:00,,0824.9,4.99,0.00,30.3,28.8,00.0,38.6,31.8,19.3,0000.0,0015.17,0005.33,0002.38
2023-05-05 02:57:00,,0824.9,5.01,0.00,30.3,28.8,00.0,38.6,31.9,19.3,0000.0,0014.90,0005.27,0002.38
2023-05-05 02:58:00,,0824.9,5.01,0.00,30.3,28.9,00.0,38.7,31.8,19.3,0000.0,0014.99,0005.29,0002.37
2023-05-05 02:59:00,,0824.9,4.98,0.00,30.3,28.9,00.0,38.7,31.8,19.3,0000.0,0016.36,0005.28,0002.37
